Time,TemperatureF,DewpointF,PressureIn,WindDirection,WindDirectionDegrees,WindSpeedMPH,WindSpeedGustMPH,Humidity,HourlyPrecipIn,Conditions,Clouds,dailyrainin,SolarRadiationWatts/m^2,SoftwareType,DateUTC
2013-11-21 00:02:00,48.0,29.0,-100.00,SSW,202,3.0,7.0,48,0.00,,,0.00,0.000000,,2013-11-21 05:02:00,
2013-11-21 00:43:00,48.0,29.0,-100.00,SW,217,3.0,10.0,48,0.00,,,0.00,0.000000,,2013-11-21 05:43:00,
2013-11-21 00:53:00,48.0,29.0,-100.00,SW,217,3.0,10.0,48,0.00,,,0.00,0.000000,,2013-11-21 05:53:00,
2013-11-21 01:03:00,48.0,29.0,-100.00,SW,217,3.0,10.0,48,0.00,,,0.00,0.000000,,2013-11-21 06:03:00,
2013-11-21 01:43:00,48.0,29.0,-100.00,WSW,241,4.0,11.0,48,0.00,,,0.00,0.000000,,2013-11-21 06:43:00,
2013-11-21 01:52:00,48.0,29.0,-100.00,WSW,241,4.0,11.0,48,0.00,,,0.00,0.000000,,2013-11-21 06:52:00,
2013-11-21 02:02:00,48.0,29.0,-100.00,WSW,241,4.0,11.0,48,0.00,,,0.00,0.000000,,2013-11-21 07:02:00,
2013-11-21 02:42:00,49.0,31.0,-100.00,WSW,244,4.0,10.0,49,0.00,,,0.00,0.000000,,2013-11-21 07:42:00,
2013-11-21 02:52:00,49.0,31.0,-100.00,WSW,244,4.0,10.0,49,0.00,,,0.00,0.000000,,2013-11-21 07:52:00,
2013-11-21 03:02:00,49.0,31.0,-100.00,WSW,244,4.0,10.0,49,0.00,,,0.00,0.000000,,2013-11-21 08:02:00,
2013-11-21 03:42:00,49.0,31.0,-100.00,WSW,250,3.0,7.0,50,0.00,,,0.00,0.000000,,2013-11-21 08:42:00,
2013-11-21 03:52:00,49.0,31.0,-100.00,WSW,250,3.0,7.0,50,0.00,,,0.00,0.000000,,2013-11-21 08:52:00,
2013-11-21 04:02:00,49.0,31.0,-100.00,WSW,250,3.0,7.0,50,0.00,,,0.00,0.000000,,2013-11-21 09:02:00,
2013-11-21 04:43:00,48.0,32.0,-100.00,WSW,243,2.0,7.0,53,0.00,,,-99.99,0.000000,,2013-11-21 09:43:00,
2013-11-21 04:53:00,48.0,32.0,-100.00,WSW,243,2.0,7.0,53,0.00,,,-99.99,0.000000,,2013-11-21 09:53:00,
2013-11-21 05:03:00,48.0,32.0,-100.00,WSW,243,2.0,7.0,53,0.00,,,-99.99,0.000000,,2013-11-21 10:03:00,
2013-11-21 05:42:00,47.0,32.0,-100.00,SW,221,2.0,7.0,56,0.00,,,0.00,0.000000,,2013-11-21 10:42:00,
2013-11-21 05:53:00,47.0,32.0,-100.00,SW,221,2.0,7.0,56,0.00,,,0.00,0.000000,,2013-11-21 10:53:00,
2013-11-21 06:03:00,47.0,32.0,-100.00,SW,221,2.0,7.0,56,0.00,,,0.00,0.000000,,2013-11-21 11:03:00,
2013-11-21 06:43:00,47.0,34.0,-100.00,WSW,242,4.0,10.0,60,0.00,,,0.00,0.000000,,2013-11-21 11:43:00,
2013-11-21 06:52:00,47.0,34.0,-100.00,WSW,242,4.0,10.0,60,0.00,,,0.00,0.000000,,2013-11-21 11:52:00,
2013-11-21 07:02:00,47.0,34.0,-100.00,WSW,242,4.0,10.0,60,0.00,,,0.00,0.000000,,2013-11-21 12:02:00,
2013-11-21 07:42:00,48.0,36.0,-100.00,SW,236,4.0,11.0,62,0.00,,,0.00,0.000000,,2013-11-21 12:42:00,
2013-11-21 07:52:00,48.0,36.0,-100.00,SW,236,4.0,11.0,62,0.00,,,0.00,0.000000,,2013-11-21 12:52:00,
2013-11-21 08:01:00,48.0,36.0,-100.00,SW,236,4.0,11.0,62,0.00,,,0.00,0.000000,,2013-11-21 13:01:00,
2013-11-21 08:42:00,47.0,36.0,-100.00,WSW,237,4.0,9.0,66,0.00,,,0.00,7.000000,,2013-11-21 13:42:00,
2013-11-21 08:52:00,47.0,36.0,-100.00,WSW,237,4.0,9.0,66,0.00,,,0.00,7.000000,,2013-11-21 13:52:00,
2013-11-21 09:02:00,47.0,36.0,-100.00,WSW,237,4.0,9.0,66,0.00,,,0.00,7.000000,,2013-11-21 14:02:00,
2013-11-21 09:42:00,50.0,39.0,-100.00,WSW,245,4.0,9.0,65,0.00,,,0.00,100.000000,,2013-11-21 14:42:00,
2013-11-21 09:52:00,50.0,39.0,-100.00,WSW,245,4.0,9.0,65,0.00,,,0.00,100.000000,,2013-11-21 14:52:00,
2013-11-21 10:02:00,50.0,39.0,-100.00,WSW,245,4.0,9.0,65,0.00,,,0.00,100.000000,,2013-11-21 15:02:00,
2013-11-21 10:44:00,54.0,41.0,-100.00,WSW,241,3.0,8.0,62,0.00,,,0.00,167.000000,,2013-11-21 15:44:00,
2013-11-21 10:53:00,54.0,41.0,-100.00,WSW,241,3.0,8.0,62,0.00,,,0.00,167.000000,,2013-11-21 15:53:00,
2013-11-21 11:03:00,54.0,41.0,-100.00,WSW,241,3.0,8.0,62,0.00,,,0.00,167.000000,,2013-11-21 16:03:00,
2013-11-21 11:42:00,56.0,43.0,-100.00,SW,234,5.0,11.0,61,0.00,,,0.00,279.000000,,2013-11-21 16:42:00,
2013-11-21 11:53:00,56.0,43.0,-100.00,SW,234,5.0,11.0,61,0.00,,,0.00,279.000000,,2013-11-21 16:53:00,
2013-11-21 12:03:00,56.0,43.0,-100.00,SW,234,5.0,11.0,61,0.00,,,0.00,279.000000,,2013-11-21 17:03:00,
2013-11-21 12:42:00,57.0,44.0,-100.00,WSW,252,4.0,9.0,61,0.00,,,0.00,288.000000,,2013-11-21 17:42:00,
2013-11-21 12:52:00,57.0,44.0,-100.00,WSW,252,4.0,9.0,61,0.00,,,0.00,288.000000,,2013-11-21 17:52:00,
2013-11-21 13:02:00,57.0,44.0,-100.00,WSW,252,4.0,9.0,61,0.00,,,0.00,288.000000,,2013-11-21 18:02:00,
2013-11-21 13:42:00,58.0,45.0,-100.00,SW,232,3.0,10.0,61,0.00,,,0.00,261.000000,,2013-11-21 18:42:00,
2013-11-21 13:52:00,58.0,45.0,-100.00,SW,232,3.0,10.0,61,0.00,,,0.00,261.000000,,2013-11-21 18:52:00,
2013-11-21 14:02:00,58.0,45.0,-100.00,SW,232,3.0,10.0,61,0.00,,,0.00,261.000000,,2013-11-21 19:02:00,
2013-11-21 14:42:00,58.0,45.0,-100.00,SW,233,3.0,9.0,62,0.00,,,0.00,214.000000,,2013-11-21 19:42:00,
2013-11-21 14:52:00,58.0,45.0,-100.00,SW,233,3.0,9.0,62,0.00,,,0.00,214.000000,,2013-11-21 19:52:00,
2013-11-21 15:02:00,58.0,45.0,-100.00,SW,233,3.0,9.0,62,0.00,,,0.00,214.000000,,2013-11-21 20:02:00,
2013-11-21 15:42:00,58.0,46.0,-100.00,WSW,252,2.0,6.0,64,0.00,,,0.00,106.000000,,2013-11-21 20:42:00,
2013-11-21 15:52:00,58.0,46.0,-100.00,WSW,252,2.0,6.0,64,0.00,,,0.00,106.000000,,2013-11-21 20:52:00,
2013-11-21 16:02:00,58.0,46.0,-100.00,WSW,252,2.0,6.0,64,0.00,,,0.00,106.000000,,2013-11-21 21:02:00,
2013-11-21 16:43:00,58.0,46.0,-100.00,SW,234,0.0,4.0,64,0.00,,,0.00,90.000000,,2013-11-21 21:43:00,
2013-11-21 16:54:00,58.0,46.0,-100.00,SW,234,0.0,4.0,64,0.00,,,0.00,90.000000,,2013-11-21 21:54:00,
2013-11-21 17:03:00,58.0,46.0,-100.00,SW,234,0.0,4.0,64,0.00,,,0.00,90.000000,,2013-11-21 22:03:00,
2013-11-21 17:43:00,57.0,47.0,-100.00,WSW,243,0.0,2.0,69,0.00,,,0.00,23.000000,,2013-11-21 22:43:00,
2013-11-21 17:53:00,57.0,47.0,-100.00,WSW,243,0.0,2.0,69,0.00,,,0.00,23.000000,,2013-11-21 22:53:00,
2013-11-21 18:03:00,57.0,47.0,-100.00,WSW,243,0.0,2.0,69,0.00,,,0.00,23.000000,,2013-11-21 23:03:00,
2013-11-21 18:42:00,54.0,50.0,-100.00,SSW,201,2.0,3.0,85,0.00,,,0.00,1.000000,,2013-11-21 23:42:00,
2013-11-21 18:53:00,54.0,50.0,-100.00,SSW,201,2.0,3.0,85,0.00,,,0.00,1.000000,,2013-11-21 23:53:00,
2013-11-21 19:02:00,54.0,50.0,-100.00,SSW,201,2.0,3.0,85,0.00,,,0.00,1.000000,,2013-11-22 00:02:00,
2013-11-21 19:42:00,52.0,49.0,-100.00,WSW,243,1.0,4.0,91,0.01,,,0.01,0.000000,,2013-11-22 00:42:00,
2013-11-21 19:52:00,52.0,49.0,-100.00,WSW,243,1.0,4.0,91,0.01,,,0.01,0.000000,,2013-11-22 00:52:00,
2013-11-21 20:01:00,52.0,49.0,-100.00,WSW,243,1.0,4.0,91,0.01,,,0.01,0.000000,,2013-11-22 01:01:00,
2013-11-21 20:42:00,52.0,51.0,-100.00,WSW,238,2.0,4.0,95,0.01,,,0.02,0.000000,,2013-11-22 01:42:00,
2013-11-21 20:52:00,52.0,51.0,-100.00,WSW,238,2.0,4.0,95,0.01,,,0.02,0.000000,,2013-11-22 01:52:00,
2013-11-21 21:02:00,52.0,51.0,-100.00,WSW,238,2.0,4.0,95,0.01,,,0.02,0.000000,,2013-11-22 02:02:00,
2013-11-21 21:42:00,52.0,51.0,-100.00,West,265,0.0,4.0,97,0.00,,,0.02,0.000000,,2013-11-22 02:42:00,
2013-11-21 21:53:00,52.0,51.0,-100.00,West,265,0.0,4.0,97,0.00,,,0.02,0.000000,,2013-11-22 02:53:00,
2013-11-21 22:02:00,52.0,51.0,-100.00,West,265,0.0,4.0,97,0.00,,,0.02,0.000000,,2013-11-22 03:02:00,
2013-11-21 22:43:00,52.0,51.0,-100.00,SSW,193,1.0,3.0,97,0.00,,,0.02,0.000000,,2013-11-22 03:43:00,
2013-11-21 22:54:00,52.0,51.0,-100.00,SSW,193,1.0,3.0,97,0.00,,,0.02,0.000000,,2013-11-22 03:54:00,
2013-11-21 23:03:00,52.0,51.0,-100.00,SSW,193,1.0,3.0,97,0.00,,,0.02,0.000000,,2013-11-22 04:03:00,
2013-11-21 23:43:00,53.0,51.0,-100.00,WSW,239,3.0,7.0,93,0.00,,,0.02,0.000000,,2013-11-22 04:43:00,
2013-11-21 23:53:00,53.0,51.0,-100.00,WSW,239,3.0,7.0,93,0.00,,,0.02,0.000000,,2013-11-22 04:53:00,